Weather History for KHSB - November, 2013

Change the Weather History Date:

Sunday, November 3, 2013

  Actual Average (KMWA) Record (KMWA)
Temperature  
Mean Temperature 43 °F -  
Max Temperature 57 °F 61 °F 82 °F (1987)
Min Temperature 29 °F 40 °F 17 °F (1991)
Degree Days  
Heating Degree Days 22    
Moisture  
Dew Point 34 °F    
Average Humidity 77    
Maximum Humidity 100    
Minimum Humidity 39    
Precipitation  
Precipitation 0.00 in - - ()
Sea Level Pressure  
Sea Level Pressure 30.27 in    
Wind  
Wind Speed 2 mph (ESE)    
Max Wind Speed 10 mph    
Max Gust Speed -    
Visibility 7 miles    
Events Fog    
Averages and records for this station are not official NWS values.
T = Trace of Precipitation, MM = Missing Value Source: NWS Daily Summary

Daily Weather History Graph

Daily Weather History Graph

Search for Another Location

Airport or City:

Trip Planner

Search our weather history database for the weather conditions in past years. The results will help you decide how hot, cold, wet, or windy it might be!

Date:

Astronomy

Nov. 03, 2013 Rise Set
Actual Time 6:21 AM CST 4:53 PM CST
Civil Twilight 5:54 AM CST 5:20 PM CST
Nautical Twilight 5:23 AM CST 5:51 PM CST
Astronomical Twilight 4:52 AM CST 6:22 PM CST
Moon 6:25 AM CST (11/3) 5:08 PM CST (11/3)
Length of Visible Light 11h 25m
Length of Day
10h 31m
New Moon, 0% of the Moon is Illuminated
Nov 3
New Moon
Nov 9
First Quarter
Nov 17
Full
Nov 25
Last Quarter
Dec 2
New

Hourly Weather History & Observations

Time (CST) Temp. Windchill Dew Point Humidity Pressure Visibility Wind Dir Wind Speed Gust Speed Precip Events Conditions
12:15 AM 35.8 °F - 35.8 °F 100% 30.21 in 7.0 mi Calm Calm - N/A   Clear
12:35 AM 34.3 °F - 34.3 °F 100% 30.20 in 7.0 mi Calm Calm - N/A   Clear
12:55 AM 34.7 °F - 34.7 °F 100% 30.21 in 3.0 mi Calm Calm - N/A   Clear
1:15 AM 34.7 °F - 34.7 °F 100% 30.21 in 7.0 mi Calm Calm - N/A   Clear
1:35 AM 35.8 °F - 35.8 °F 100% 30.21 in 7.0 mi Calm Calm - N/A   Clear
1:55 AM 34.0 °F - 34.0 °F 100% 30.22 in 0.5 mi Calm Calm - N/A Fog Fog
1:15 AM 32.9 °F - 32.9 °F 100% 30.22 in 0.2 mi Calm Calm - N/A Fog Fog
1:35 AM 33.8 °F - 33.8 °F 100% 30.23 in 0.5 mi Calm Calm - N/A Fog Fog
1:55 AM 33.1 °F - 33.1 °F 100% 30.24 in 5.0 mi Calm Calm - N/A   Clear
2:15 AM 33.1 °F - 33.1 °F 100% 30.24 in 2.5 mi Calm Calm - N/A   Clear
2:35 AM 33.1 °F - 33.1 °F 100% 30.24 in 0.8 mi Calm Calm - N/A   Mist
2:55 AM 32.4 °F - 32.4 °F 100% 30.24 in 0.8 mi Calm Calm - N/A   Mist
3:15 AM 31.5 °F - 31.5 °F 100% 30.24 in 0.5 mi Calm Calm - N/A Fog Light Freezing Fog
3:35 AM 31.8 °F - 31.8 °F 100% 30.25 in 1.0 mi Calm Calm - N/A   Mist
3:55 AM 30.9 °F - 30.9 °F 100% 30.26 in 10.0 mi Calm Calm - N/A   Clear
4:15 AM 31.8 °F - 31.8 °F 100% 30.26 in 0.8 mi Calm Calm - N/A   Mist
4:35 AM 31.3 °F - 31.3 °F 100% 30.27 in 0.8 mi Calm Calm - N/A   Mist
4:55 AM 31.8 °F - 31.8 °F 100% 30.27 in 1.5 mi Calm Calm - N/A   Mist
5:15 AM 32.0 °F - 32.0 °F 100% 30.28 in 1.2 mi Calm Calm - N/A   Mist
5:35 AM 30.7 °F - 30.7 °F 100% 30.28 in 0.5 mi Calm Calm - N/A Fog Light Freezing Fog
5:55 AM 29.7 °F - 29.7 °F 100% 30.29 in 0.5 mi Calm Calm - N/A Fog Light Freezing Fog
6:15 AM 29.8 °F - 29.8 °F 100% 30.29 in 7.0 mi Calm Calm - N/A   Clear
6:35 AM 30.2 °F - 30.2 °F 100% 30.30 in 0.2 mi Calm Calm - N/A Fog Light Freezing Fog
6:55 AM 30.2 °F - 30.2 °F 100% 30.30 in 4.0 mi Calm Calm - N/A   Clear
7:15 AM 31.8 °F - 31.8 °F 100% 30.31 in 2.0 mi Calm Calm - N/A   Clear
7:35 AM 32.5 °F - 32.5 °F 100% 30.32 in 3.0 mi Calm Calm - N/A   Clear
7:55 AM 34.5 °F - 34.5 °F 100% 30.33 in 7.0 mi Calm Calm - N/A   Clear
8:15 AM 37.4 °F - 37.4 °F 100% 30.34 in 7.0 mi Calm Calm - N/A   Clear
8:35 AM 40.1 °F - 40.1 °F 100% 30.34 in 10.0 mi Calm Calm - N/A   Clear
8:55 AM 42.3 °F - 42.3 °F 100% 30.34 in 10.0 mi Calm Calm - N/A   Clear
9:15 AM 44.8 °F - 42.6 °F 92% 30.34 in 10.0 mi Calm Calm - N/A   Clear
9:35 AM 46.8 °F - 41.9 °F 83% 30.34 in 10.0 mi Calm Calm - N/A   Clear
9:55 AM 48.9 °F - 39.4 °F 70% 30.34 in 10.0 mi Calm Calm - N/A   Clear
10:15 AM 50.7 °F - 39.2 °F 65% 30.34 in 10.0 mi Calm Calm - N/A   Clear
10:35 AM 52.0 °F - 36.9 °F 56% 30.34 in 10.0 mi ESE 4.6 mph - N/A   Clear
10:55 AM 53.4 °F - 35.2 °F 50% 30.33 in 10.0 mi SSE 3.5 mph - N/A   Clear
11:15 AM 53.4 °F - 33.8 °F 47% 30.33 in 10.0 mi SE 4.6 mph - N/A   Clear
11:35 AM 54.0 °F - 32.4 °F 44% 30.32 in 10.0 mi East 5.8 mph - N/A   Clear
11:55 AM 54.1 °F - 32.4 °F 44% 30.31 in 10.0 mi East 5.8 mph - N/A   Clear
12:15 PM 55.2 °F - 33.1 °F 43% 30.30 in 10.0 mi East 5.8 mph - N/A   Clear
12:35 PM 55.6 °F - 32.9 °F 42% 30.29 in 10.0 mi ESE 3.5 mph - N/A   Clear
12:55 PM 55.8 °F - 32.7 °F 42% 30.28 in 10.0 mi ESE 9.2 mph - N/A   Clear
1:15 PM 55.9 °F - 32.4 °F 41% 30.28 in 10.0 mi SE 10.4 mph - N/A   Clear
1:35 PM 57.2 °F - 32.4 °F 39% 30.27 in 10.0 mi SSE 6.9 mph - N/A   Clear
1:55 PM 56.7 °F - 32.0 °F 39% 30.27 in 10.0 mi ESE 8.1 mph - N/A   Clear
2:15 PM 57.0 °F - 32.2 °F 39% 30.26 in 10.0 mi ENE 4.6 mph - N/A   Clear
2:35 PM 57.0 °F - 32.4 °F 39% 30.25 in 10.0 mi ESE 10.4 mph - N/A   Clear
2:55 PM 57.2 °F - 33.6 °F 41% 30.25 in 10.0 mi East 10.4 mph - N/A   Clear
3:15 PM 56.7 °F - 33.1 °F 41% 30.24 in 10.0 mi ESE 8.1 mph - N/A   Clear
3:35 PM 56.5 °F - 34.2 °F 43% 30.23 in 10.0 mi East 9.2 mph - N/A   Clear
3:55 PM 55.6 °F - 33.8 °F 44% 30.23 in 10.0 mi ESE 9.2 mph - N/A   Clear
4:15 PM 55.0 °F - 34.2 °F 45% 30.23 in 10.0 mi ESE 9.2 mph - N/A   Clear
4:35 PM 53.6 °F - 34.3 °F 48% 30.23 in 10.0 mi East 9.2 mph - N/A   Clear
4:55 PM 51.3 °F - 34.7 °F 53% 30.24 in 10.0 mi East 6.9 mph - N/A   Clear
5:15 PM 48.2 °F - 34.7 °F 60% 30.23 in 7.0 mi East 8.1 mph - N/A   Clear
5:35 PM 47.1 °F - 34.9 °F 62% 30.24 in 10.0 mi East 5.8 mph - N/A   Clear
5:55 PM 45.5 °F - 34.7 °F 66% 30.26 in 10.0 mi Calm Calm - N/A   Clear
6:15 PM 45.5 °F - 34.7 °F 66% 30.26 in 10.0 mi Calm Calm - N/A   Clear
6:35 PM 43.0 °F 38.8 °F 35.2 °F 74% 30.24 in 10.0 mi East 6.9 mph - N/A   Clear
6:55 PM 42.1 °F 38.4 °F 36.1 °F 79% 30.24 in 10.0 mi East 5.8 mph - N/A   Clear
7:15 PM 44.4 °F 42.9 °F 35.2 °F 70% 30.25 in 10.0 mi ESE 3.5 mph - N/A   Clear
7:35 PM 43.7 °F - 36.1 °F 75% 30.26 in 10.0 mi Calm Calm - N/A   Clear
7:55 PM 44.1 °F - 35.8 °F 73% 30.26 in 10.0 mi Calm Calm - N/A   Clear
8:15 PM 42.3 °F - 36.7 °F 81% 30.28 in 10.0 mi Calm Calm - N/A   Clear
8:35 PM 42.4 °F 40.7 °F 36.3 °F 79% 30.27 in 10.0 mi SE 3.5 mph - N/A   Clear
8:55 PM 41.9 °F 40.0 °F 37.2 °F 83% 30.27 in 2.0 mi SE 3.5 mph - N/A   Haze
9:15 PM 41.5 °F - 38.1 °F 88% 30.28 in 7.0 mi Calm Calm - N/A   Clear
9:35 PM 42.4 °F 40.7 °F 37.8 °F 83% 30.28 in 10.0 mi East 3.5 mph - N/A   Clear
9:55 PM 42.4 °F 40.7 °F 37.2 °F 82% 30.27 in 10.0 mi East 3.5 mph - N/A   Clear
10:15 PM 42.6 °F - 37.4 °F 82% 30.27 in 2.0 mi Calm Calm - N/A   Haze
10:35 PM 42.6 °F - 37.9 °F 83% 30.26 in 3.0 mi Calm Calm - N/A   Haze
10:55 PM 43.0 °F 39.5 °F 37.9 °F 82% 30.24 in 10.0 mi SE 5.8 mph - N/A   Clear